Change the Weather History Date:

Friday, August 22, 2014

  Actual Average Record
Temperature  
Mean Temperature 82 °F 78 °F  
Max Temperature 92 °F 88 °F 101 °F (1983)
Min Temperature 71 °F 68 °F 53 °F (2000)
Degree Days  
Heating Degree Days 0 0  
Month to date heating degree days 0 0  
Since 1 June heating degree days 0 4  
Since 1 July heating degree days 0 0  
Cooling Degree Days 17 13  
Month to date cooling degree days 248 309  
Year to date cooling degree days 1261 1331  
Since 1 June cooling degree days 1048 1122  
Growing Degree Days 31 (Base 50)    
Moisture  
Dew Point 71 °F    
Average Humidity 73    
Maximum Humidity 93    
Minimum Humidity 52    
Precipitation  
Precipitation 0.00 in 0.15 in 1.68 in (1947)
Month to date precipitation 6.79 2.92  
Year to date precipitation 38.33 28.20  
Sea Level Pressure  
Sea Level Pressure 29.99 in    
Wind  
Wind Speed 2 mph (WNW)    
Max Wind Speed 14 mph    
Max Gust Speed 20 mph    
Visibility 10 miles    
Events Thunderstorm    
T = Trace of Precipitation, MM = Missing Value Source: NWS Daily Summary

Daily Weather History Graph

Daily Weather History Graph

Search for Another Location

Airport or City:

Trip Planner

Search our weather history database for the weather conditions in past years. The results will help you decide how hot, cold, wet, or windy it might be!

Date:

Astronomy

Aug. 22, 2014 Rise Set
Actual Time 6:39 AM EDT 7:56 PM EDT
Civil Twilight 6:12 AM EDT 8:22 PM EDT
Nautical Twilight 5:40 AM EDT 8:54 PM EDT
Astronomical Twilight 5:07 AM EDT 9:27 PM EDT
Moon 4:02 AM EDT (8/22) 6:01 PM EDT (8/22)
Length of Visible Light 14h 10m
Length of Day
13h 16m
Waning Crescent, 8% of the Moon is Illuminated
Aug 22
Waning Crescent
Aug 25
New
Sep 2
First Quarter
Sep 8
Full
Sep 15
Last Quarter

Hourly Weather History & Observations

Time (EDT) Temp. Heat Index Dew Point Humidity Pressure Visibility Wind Dir Wind Speed Gust Speed Precip Events Conditions
12:51 AM 78.8 °F - 71.6 °F 78% 30.03 in 10.0 mi Calm Calm - N/A   Mostly Cloudy
1:51 AM 75.9 °F - 72.0 °F 87% 30.02 in 10.0 mi Calm Calm - N/A   Scattered Clouds
2:51 AM 73.9 °F - 71.1 °F 91% 30.01 in 8.0 mi Calm Calm - N/A   Scattered Clouds
3:51 AM 73.0 °F - 70.0 °F 90% 29.99 in 7.0 mi Calm Calm - N/A   Scattered Clouds
4:51 AM 73.4 °F - 69.8 °F 88% 30.00 in 8.0 mi Calm Calm - N/A   Scattered Clouds
5:51 AM 71.6 °F - 69.8 °F 94% 30.01 in 8.0 mi Calm Calm - N/A   Mostly Cloudy
6:51 AM 72.0 °F - 69.1 °F 91% 30.01 in 6.0 mi Calm Calm - N/A   Mostly Cloudy
7:51 AM 75.9 °F - 71.1 °F 85% 30.02 in 10.0 mi Calm Calm - N/A   Mostly Cloudy
8:51 AM 78.1 °F - 72.0 °F 81% 30.02 in 10.0 mi WSW 3.5 mph - N/A   Mostly Cloudy
9:51 AM 82.0 °F 86.3 °F 71.1 °F 69% 30.03 in 10.0 mi SW 3.5 mph - N/A   Mostly Cloudy
10:51 AM 84.9 °F 90.1 °F 71.1 °F 63% 30.01 in 10.0 mi Variable 4.6 mph - N/A   Mostly Cloudy
11:51 AM 88.0 °F 94.7 °F 72.0 °F 59% 30.01 in 10.0 mi NNW 3.5 mph - N/A   Mostly Cloudy
12:51 PM 89.1 °F 96.0 °F 72.0 °F 57% 30.00 in 10.0 mi North 8.1 mph - N/A   Mostly Cloudy
1:51 PM 90.0 °F 96.4 °F 71.1 °F 54% 29.99 in 10.0 mi Variable 4.6 mph - N/A   Mostly Cloudy
2:51 PM 90.0 °F 95.4 °F 70.0 °F 52% 29.98 in 10.0 mi WNW 6.9 mph - N/A   Mostly Cloudy
3:51 PM 88.0 °F 93.8 °F 71.1 °F 57% 29.96 in 10.0 mi North 3.5 mph - N/A   Mostly Cloudy
4:32 PM 87.8 °F 93.8 °F 71.6 °F 58% 29.97 in 10.0 mi North 4.6 mph - N/A Thunderstorm Thunderstorm
4:51 PM 82.9 °F 87.0 °F 70.0 °F 65% 29.97 in 10.0 mi West 10.4 mph 19.6 mph N/A Thunderstorm Thunderstorm
5:31 PM 86.0 °F 91.8 °F 71.6 °F 62% 29.97 in 10.0 mi SW 3.5 mph - N/A   Mostly Cloudy
5:51 PM 82.9 °F 88.8 °F 73.0 °F 72% 29.96 in 10.0 mi SW 3.5 mph - N/A   Mostly Cloudy
6:51 PM 82.0 °F 86.7 °F 72.0 °F 71% 29.95 in 10.0 mi Calm Calm - N/A   Mostly Cloudy
7:51 PM 79.0 °F - 73.0 °F 82% 29.94 in 10.0 mi Calm Calm - N/A   Mostly Cloudy
8:51 PM 77.0 °F - 73.0 °F 88% 29.94 in 10.0 mi Calm Calm - N/A   Mostly Cloudy
9:51 PM 77.0 °F - 73.4 °F 89% 29.97 in 9.0 mi Calm Calm - N/A   Mostly Cloudy
10:51 PM 79.0 °F - 73.0 °F 82% 29.96 in 10.0 mi Calm Calm - N/A   Mostly Cloudy
11:51 PM 80.1 °F 83.8 °F 72.0 °F 76% 29.96 in 10.0 mi Variable 3.5 mph - N/A   Mostly Cloudy